sat.trackr.live / text

‹ back to catalog

STARLINK-1664

NORAD 46553 · 2020-070X

PAYLOAD ACTIVE UNKNOWN

§ Identity

Operator
Country
US
Launch date
2020-10-06
Launch site
AFETR
Launch vehicle
Mass (kg)
RCS (m²)

Purposes: comms

External: N2YO · Heavens-Above · Gunter

§ Orbital elements

Epoch: 2026-09-19T15:32:05.525952Z

Period
91.77 min
Inclination
53.0373°
Eccentricity
0.0007724
Mean motion
15.69117169 rev/d
Perigee alt
356.2 km
Apogee alt
366.6 km
Semi-major
6,739.6 km
B*
5.5538e-4
RAAN
277.9722°
Arg perigee
25.8579°
Mean anomaly
334.2822°
Rev number
33,025

§ Raw data

STARLINK-16641 46553U 20070X   26262.64728618  .00065692  00000+0  55538-3 0  99982 46553  53.0373 277.9722 0007724  25.8579 334.2822 15.69117169330251

JSON: /api/v1/satellites/46553 · /tle

For live sub-satellite position, see the globe view (requires WebGL).

§ Visibility from observer

Set your observer location to see the next 7 days of passes ≥ 10°. The values pass through the URL so the page stays shareable.

No JS? Fill the form by hand. The geolocation button needs JavaScript.